When you browse on this site, cookies collect data to enhance your experience and personalize the content and advertising you see.
Visit our Privacy Policy to learn more. By continuing to use the site, you agree to this use of cookies and data.
  • în România
  • Lista ţărilor
  • Pe 7 zile
  • Temperatura apei
  • Meteo pe hartă
  • Widget-uri
  • user-avatar
    Intrare

    Meteo pe oră la Malanje

    Astăzi, 25 Mai, Luni

    Timp Temperatura Precipitaţii Vânt Presiune Umiditate
    00:00 +21°C° 0 mm 1 m/s 666 mmHg 67%
    01:00 +20°C° 0 mm 1 m/s 666 mmHg 69%
    02:00 +20°C° 0 mm 1 m/s 665 mmHg 72%
    03:00 +17°C° 0 mm 0 m/s 665 mmHg 75%
    04:00 +17°C° 0 mm 0 m/s 665 mmHg 78%
    05:00 +17°C° 0 mm 0 m/s 665 mmHg 77%
    06:00 +18°C° 0 mm 0 m/s 666 mmHg 76%
    07:00 +20°C° 0 mm 1 m/s 667 mmHg 73%
    08:00 +23°C° 0 mm 1 m/s 667 mmHg 65%
    09:00 +25°C° 0 mm 1 m/s 668 mmHg 56%
    10:00 +28°C° 0 mm 2 m/s 668 mmHg 48%
    11:00 +29°C° 0 mm 1 m/s 668 mmHg 44%
    12:00 +31°C° 0 mm 1 m/s 667 mmHg 41%
    13:00 +32°C° 0 mm 1 m/s 667 mmHg 35%
    14:00 +31°C° 0 mm 1 m/s 666 mmHg 36%
    15:00 +31°C° 0 mm 1 m/s 665 mmHg 36%
    16:00 +30°C° 0 mm 1 m/s 665 mmHg 37%
    17:00 +28°C° 0 mm 1 m/s 665 mmHg 42%
    18:00 +25°C° 0 mm 1 m/s 665 mmHg 48%
    19:00 +21°C° 0 mm 0 m/s 665 mmHg 54%
    20:00 +20°C° 0 mm 0 m/s 665 mmHg 56%
    21:00 +22°C° 0 mm 1 m/s 665 mmHg 58%
    22:00 +21°C° 0 mm 1 m/s 665 mmHg 61%
    23:00 +21°C° 0 mm 1 m/s 665 mmHg 65%

    Mâine, 26 Mai, Marţi

    Timp Temperatura Precipitaţii Vânt Presiune Umiditate
    00:00 +20°C° 0 mm 1 m/s 665 mmHg 68%
    01:00 +20°C° 0 mm 1 m/s 665 mmHg 72%
    02:00 +19°C° 0 mm 1 m/s 665 mmHg 78%
    03:00 +19°C° 0 mm 1 m/s 664 mmHg 84%
    04:00 +18°C° 0 mm 1 m/s 664 mmHg 89%
    05:00 +19°C° 0 mm 1 m/s 665 mmHg 88%
    06:00 +19°C° 0 mm 1 m/s 665 mmHg 87%
    07:00 +17°C° 0 mm 0 m/s 666 mmHg 86%
    08:00 +21°C° 0 mm 0 m/s 667 mmHg 73%
    09:00 +26°C° 0 mm 1 m/s 668 mmHg 60%
    10:00 +30°C° 0 mm 1 m/s 669 mmHg 47%
    11:00 +30°C° 0 mm 0 m/s 668 mmHg 42%
    12:00 +31°C° 0 mm 0 m/s 668 mmHg 37%
    13:00 +33°C° 0 mm 0 m/s 668 mmHg 32%
    14:00 +32°C° 0 mm 0 m/s 667 mmHg 32%
    15:00 +31°C° 0 mm 0 m/s 667 mmHg 32%
    16:00 +31°C° 0 mm 1 m/s 666 mmHg 33%
    17:00 +29°C° 0 mm 1 m/s 666 mmHg 40%
    18:00 +27°C° 0 mm 1 m/s 665 mmHg 47%
    19:00 +24°C° 0 mm 1 m/s 665 mmHg 55%
    20:00 +23°C° 0 mm 1 m/s 665 mmHg 60%
    21:00 +23°C° 0 mm 1 m/s 666 mmHg 65%
    22:00 +22°C° 0 mm 1 m/s 666 mmHg 70%
    23:00 +21°C° 0 mm 1 m/s 665 mmHg 75%

    Poimâine, 27 Mai, Miercuri

    Timp Temperatura Precipitaţii Vânt Presiune Umiditate
    00:00 +21°C° 0 mm 1 m/s 665 mmHg 80%
    01:00 +20°C° 0 mm 1 m/s 665 mmHg 85%
    02:00 +19°C° 0 mm 1 m/s 665 mmHg 87%
    03:00 +19°C° 0 mm 1 m/s 665 mmHg 90%
    04:00 +18°C° 0 mm 1 m/s 665 mmHg 93%
    05:00 +19°C° 0 mm 1 m/s 665 mmHg 90%
    06:00 +19°C° 0 mm 1 m/s 666 mmHg 88%
    07:00 +20°C° 0 mm 1 m/s 666 mmHg 85%
    08:00 +23°C° 0 mm 1 m/s 667 mmHg 73%
    09:00 +27°C° 0 mm 1 m/s 668 mmHg 60%
    10:00 +30°C° 0 mm 1 m/s 669 mmHg 48%
    11:00 +32°C° 0 mm 1 m/s 668 mmHg 42%
    12:00 +32°C° 0 mm 0 m/s 668 mmHg 37%
    13:00 +33°C° 0 mm 0 m/s 668 mmHg 31%
    14:00 +32°C° 0 mm 0 m/s 667 mmHg 33%
    15:00 +32°C° 0 mm 1 m/s 666 mmHg 35%
    16:00 +31°C° 0 mm 1 m/s 665 mmHg 37%
    17:00 +29°C° 0 mm 1 m/s 666 mmHg 41%
    18:00 +28°C° 0 mm 1 m/s 666 mmHg 45%
    19:00 +26°C° 0 mm 1 m/s 666 mmHg 48%
    20:00 +26°C° 0 mm 1 m/s 666 mmHg 52%
    21:00 +25°C° 0 mm 1 m/s 667 mmHg 56%
    22:00 +24°C° 0 mm 1 m/s 667 mmHg 60%
    23:00 +23°C° 0 mm 1 m/s 666 mmHg 65%

    28 Mai, Joi

    Timp Temperatura Precipitaţii Vânt Presiune Umiditate
    00:00 +22°C° 0 mm 1 m/s 666 mmHg 71%
    01:00 +21°C° 0 mm 1 m/s 666 mmHg 76%
    02:00 +21°C° 0 mm 1 m/s 665 mmHg 79%
    03:00 +20°C° 0 mm 1 m/s 665 mmHg 82%
    04:00 +19°C° 0 mm 1 m/s 665 mmHg 85%
    05:00 +19°C° 0 mm 1 m/s 665 mmHg 83%
    06:00 +20°C° 0 mm 1 m/s 666 mmHg 81%
    07:00 +20°C° 0 mm 1 m/s 666 mmHg 79%
    08:00 +23°C° 0 mm 1 m/s 667 mmHg 67%
    09:00 +26°C° 0 mm 1 m/s 668 mmHg 55%
    10:00 +30°C° 0 mm 1 m/s 668 mmHg 43%
    11:00 +31°C° 0 mm 1 m/s 668 mmHg 39%
    12:00 +32°C° 0 mm 1 m/s 667 mmHg 35%
    13:00 +34°C° 0 mm 2 m/s 667 mmHg 32%
    14:00 +32°C° 0 mm 1 m/s 666 mmHg 32%
    15:00 +32°C° 0 mm 1 m/s 666 mmHg 33%
    16:00 +31°C° 0 mm 1 m/s 665 mmHg 34%
    17:00 +30°C° 0 mm 1 m/s 665 mmHg 38%
    18:00 +26°C° 0 mm 0 m/s 665 mmHg 41%
    19:00 +24°C° 0 mm 0 m/s 665 mmHg 45%
    20:00 +24°C° 0 mm 0 m/s 666 mmHg 46%
    21:00 +24°C° 0 mm 0 m/s 666 mmHg 48%
    22:00 +23°C° 0 mm 0 m/s 666 mmHg 49%
    23:00 +24°C° 0 mm 1 m/s 666 mmHg 54%

    29 Mai, Vineri

    Timp Temperatura Precipitaţii Vânt Presiune Umiditate
    00:00 +23°C° 0 mm 1 m/s 665 mmHg 58%
    01:00 +22°C° 0 mm 1 m/s 665 mmHg 63%
    02:00 +22°C° 0 mm 1 m/s 665 mmHg 64%
    03:00 +21°C° 0 mm 1 m/s 665 mmHg 65%
    04:00 +21°C° 0 mm 1 m/s 665 mmHg 66%
    05:00 +21°C° 0 mm 1 m/s 665 mmHg 65%
    06:00 +22°C° 0 mm 1 m/s 666 mmHg 64%
    07:00 +22°C° 0 mm 1 m/s 666 mmHg 62%
    08:00 +24°C° 0 mm 2 m/s 667 mmHg 54%
    09:00 +26°C° 0 mm 2 m/s 667 mmHg 47%
    10:00 +28°C° 0 mm 2 m/s 668 mmHg 39%
    11:00 +30°C° 0 mm 3 m/s 668 mmHg 34%
    12:00 +31°C° 0 mm 3 m/s 667 mmHg 30%
    13:00 +34°C° 0 mm 3 m/s 667 mmHg 26%
    14:00 +32°C° 0 mm 2 m/s 666 mmHg 27%
    15:00 +32°C° 0 mm 2 m/s 665 mmHg 27%
    16:00 +31°C° 0 mm 2 m/s 665 mmHg 28%
    17:00 +29°C° 0 mm 2 m/s 665 mmHg 33%
    18:00 +26°C° 0 mm 1 m/s 665 mmHg 38%
    19:00 +24°C° 0 mm 1 m/s 665 mmHg 43%
    20:00 +23°C° 0 mm 1 m/s 665 mmHg 44%
    21:00 +22°C° 0 mm 1 m/s 665 mmHg 44%
    22:00 +20°C° 0 mm 0 m/s 665 mmHg 45%
    23:00 +21°C° 0 mm 1 m/s 665 mmHg 46%

    30 Mai, Sâmbătă

    Timp Temperatura Precipitaţii Vânt Presiune Umiditate
    00:00 +20°C° 0 mm 1 m/s 664 mmHg 47%
    01:00 +20°C° 0 mm 1 m/s 664 mmHg 48%
    02:00 +19°C° 0 mm 1 m/s 664 mmHg 50%
    03:00 +18°C° 0 mm 1 m/s 664 mmHg 51%
    04:00 +18°C° 0 mm 1 m/s 664 mmHg 53%
    05:00 +18°C° 0 mm 1 m/s 664 mmHg 54%
    06:00 +18°C° 0 mm 1 m/s 665 mmHg 56%
    07:00 +18°C° 0 mm 1 m/s 665 mmHg 57%
    08:00 +20°C° 0 mm 2 m/s 666 mmHg 50%
    09:00 +24°C° 0 mm 2 m/s 667 mmHg 43%
    10:00 +28°C° 0 mm 2 m/s 667 mmHg 36%
    11:00 +29°C° 0 mm 2 m/s 667 mmHg 31%
    12:00 +31°C° 0 mm 2 m/s 667 mmHg 27%
    13:00 +33°C° 0 mm 3 m/s 667 mmHg 23%
    14:00 +32°C° 0 mm 2 m/s 666 mmHg 24%
    15:00 +31°C° 0 mm 2 m/s 666 mmHg 26%
    16:00 +31°C° 0 mm 2 m/s 665 mmHg 27%
    17:00 +28°C° 0 mm 2 m/s 665 mmHg 31%
    18:00 +26°C° 0 mm 1 m/s 665 mmHg 35%
    19:00 +23°C° 0 mm 1 m/s 665 mmHg 39%
    20:00 +21°C° 0 mm 0 m/s 665 mmHg 41%
    21:00 +20°C° 0 mm 0 m/s 665 mmHg 42%
    22:00 +19°C° 0 mm 0 m/s 665 mmHg 44%
    23:00 +19°C° 0 mm 0 m/s 665 mmHg 46%
    Arată mai mult